Quantico, VA

10:38 AM EST on December 05, 2016 (GMT -0500)
Quantico Marine Corps Air Facility

Weather History for KNYG - December, 2012

Change the Weather History Date:

Thursday, December 6, 2012

  Actual Average Record
Temperature  
Mean Temperature 37 °F -  
Max Temperature 42 °F 48 °F 78 °F (1998)
Min Temperature 32 °F 32 °F 19 °F (2002)
Degree Days  
Heating Degree Days 28    
Moisture  
Dew Point 24 °F    
Average Humidity 58    
Maximum Humidity 73    
Minimum Humidity 41    
Precipitation  
Precipitation 0.00 in - - ()
Sea Level Pressure  
Sea Level Pressure 30.34 in    
Wind  
Wind Speed 7 mph (SE)    
Max Wind Speed 12 mph    
Max Gust Speed -    
Visibility 10 miles    
Events Snow    
Averages and records for this station are not official NWS values.
T = Trace of Precipitation, MM = Missing Value Source: NWS Daily Summary

Daily Weather History Graph

Daily Weather History Graph

Search for Another Location

Airport or City:

Trip Planner

Search our weather history database for the weather conditions in past years. The results will help you decide how hot, cold, wet, or windy it might be!

Date:

Astronomy

Dec. 06, 2012 Rise Set
Actual Time 7:12 AM EST 4:48 PM EST
Civil Twilight 6:43 AM EST 5:17 PM EST
Nautical Twilight 6:10 AM EST 5:50 PM EST
Astronomical Twilight 5:38 AM EST 6:22 PM EST
Moon No Moon Rise 12:08 PM EST (12/6)
Length of Visible Light 10h 34m
Length of Day
9h 35m
Waning Gibbous, 49% of the Moon is Illuminated
Dec 6
Waning Gibbous
Dec 13
New
Dec 20
First Quarter
Dec 28
Full
Jan 4
Last Quarter

Hourly Weather History & Observations

Time (EST) Temp. Windchill Dew Point Humidity Pressure Visibility Wind Dir Wind Speed Gust Speed Precip Events Conditions
12:56 AM 37.9 °F 32.1 °F 21.9 °F 53% 30.32 in 10.0 mi North 8.1 mph - N/A   Clear
1:56 AM 37.0 °F 33.3 °F 21.0 °F 52% 30.34 in 10.0 mi NNW 4.6 mph - N/A   Clear
2:56 AM 35.1 °F 29.3 °F 21.0 °F 57% 30.35 in 10.0 mi North 6.9 mph - N/A   Clear
3:56 AM 35.1 °F 29.3 °F 21.0 °F 57% 30.35 in 10.0 mi North 6.9 mph - N/A   Clear
4:56 AM 32.0 °F 25.6 °F 21.0 °F 64% 30.35 in 10.0 mi NW 6.9 mph - N/A   Clear
5:56 AM 32.0 °F 25.6 °F 21.0 °F 64% 30.37 in 10.0 mi North 6.9 mph - N/A   Clear
6:56 AM 32.0 °F 28.7 °F 21.0 °F 64% 30.38 in 10.0 mi NNW 3.5 mph - N/A   Scattered Clouds
7:56 AM 32.0 °F 25.6 °F 24.1 °F 73% 30.41 in 10.0 mi NW 6.9 mph - 0.00 in Snow Light Snow
8:56 AM 37.0 °F 29.3 °F 21.9 °F 54% 30.41 in 10.0 mi NE 11.5 mph - N/A   Partly Cloudy
9:56 AM 39.0 °F 32.3 °F 21.9 °F 50% 30.42 in 9.0 mi ENE 10.4 mph - N/A   Scattered Clouds
10:56 AM 39.9 °F 33.9 °F 21.9 °F 49% 30.41 in 10.0 mi ENE 9.2 mph - N/A   Partly Cloudy
11:56 AM 41.0 °F - 19.9 °F 43% 30.37 in 10.0 mi Calm Calm - N/A   Partly Cloudy
12:56 PM 42.1 °F 40.2 °F 19.9 °F 41% 30.34 in 10.0 mi SSE 3.5 mph - N/A   Scattered Clouds
1:56 PM 42.1 °F 37.7 °F 24.1 °F 49% 30.32 in 10.0 mi South 6.9 mph - N/A   Scattered Clouds
2:56 PM 42.1 °F 38.4 °F 23.0 °F 47% 30.31 in 10.0 mi South 5.8 mph - N/A   Scattered Clouds
3:56 PM 42.1 °F 39.2 °F 24.1 °F 49% 30.30 in 10.0 mi SSW 4.6 mph - N/A   Scattered Clouds
4:56 PM 42.1 °F 38.4 °F 23.0 °F 47% 30.30 in 10.0 mi South 5.8 mph - N/A   Scattered Clouds
5:56 PM 41.0 °F 36.4 °F 27.0 °F 57% 30.31 in 10.0 mi SSE 6.9 mph - N/A   Clear
6:56 PM 39.9 °F 34.5 °F 28.0 °F 63% 30.30 in 10.0 mi SSE 8.1 mph - N/A   Clear
7:56 PM 39.0 °F 32.8 °F 30.9 °F 73% 30.30 in 10.0 mi SSE 9.2 mph - N/A   Clear
8:56 PM 39.0 °F 34.0 °F 30.0 °F 70% 30.30 in 10.0 mi South 6.9 mph - N/A   Clear
9:56 PM 37.9 °F 32.1 °F 30.0 °F 73% 30.29 in 10.0 mi SSE 8.1 mph - N/A   Clear
10:56 PM 39.0 °F 33.4 °F 30.0 °F 70% 30.29 in 10.0 mi SSE 8.1 mph - N/A   Mostly Cloudy
11:56 PM 39.0 °F 33.4 °F 30.9 °F 73% 30.28 in 10.0 mi South 8.1 mph - N/A   Overcast